GLOBALSTAR M001 1 25162U 98008A 26035.11564669 -.00000069 00000+0 21120-3 0 9999 2 25162 52.0057 18.1669 0001654 33.6260 46.2813 12.38226680272445 GLOBALSTAR M004 1 25163U 98008B 26035.02183981 -.00000078 00000+0 14441-3 0 9992 2 25163 52.0005 66.8699 0003515 88.9236 283.7645 12.63413956290999 GLOBALSTAR M002 1 25164U 98008C 26035.08938412 -.00000078 00000+0 -30146-4 0 9998 2 25164 52.0041 18.7439 0001291 203.2392 156.8370 11.61515111211016 GLOBALSTAR M003 1 25165U 98008D 26035.03730137 -.00000208 00000+0 -12643-2 0 9993 2 25165 51.9858 246.3549 0008874 42.6031 114.5017 12.12030446261330 GLOBALSTAR M014 1 25306U 98023A 26035.13578476 -.00000047 00000+0 56821-3 0 9991 2 25306 51.9851 296.9781 0001803 63.4931 85.8237 11.65484194218217 GLOBALSTAR M006 1 25307U 98023B 26035.21373196 -.00000079 00000+0 -63445-4 0 9990 2 25307 51.9973 357.9236 0002894 164.3081 299.1392 11.58176397243714 GLOBALSTAR M015 1 25308U 98023C 26035.17065379 -.00000114 00000+0 -92012-3 0 9998 2 25308 51.9822 107.1360 0013361 129.3303 253.1745 11.48861963220749 GLOBALSTAR M008 1 25309U 98023D 26035.00675443 -.00000078 00000+0 13880-3 0 9994 2 25309 51.9948 245.9450 0002042 324.0861 183.3109 12.36080274266516 GLOBALSTAR M023 1 25621U 99004A 26035.07466969 -.00000055 00000+0 27250-3 0 9990 2 25621 52.0109 67.3310 0009365 279.0402 99.4547 12.62516464245020 GLOBALSTAR M040 1 25622U 99004B 26035.14329620 -.00000090 00000+0 78205-4 0 9997 2 25622 51.9921 71.6171 0001192 162.0871 233.0863 12.62028135244541 GLOBALSTAR M036 1 25623U 99004C 26035.21375008 -.00000048 00000+0 51354-3 0 9995 2 25623 51.9999 348.7366 0010705 133.5811 4.2295 11.86618387206520 GLOBALSTAR M038 1 25624U 99004D 26035.18020235 -.00000055 00000+0 32932-3 0 9990 2 25624 51.9970 123.4502 0002352 161.5824 211.6322 12.32540433230984 GLOBALSTAR M022 1 25649U 99012A 26035.15546288 -.00000103 00000+0 -19505-3 0 9990 2 25649 52.0065 20.2988 0002454 270.0243 172.8260 12.02509344204280 GLOBALSTAR M041 1 25650U 99012B 26035.00446477 -.00000066 00000+0 24931-3 0 9991 2 25650 52.0008 269.2327 0002209 67.7312 292.3758 11.96683513206035 GLOBALSTAR M046 1 25651U 99012C 26035.18750784 -.00000048 00000+0 45425-3 0 9991 2 25651 52.0082 321.8805 0002256 7.7159 136.6486 12.09417143211739 GLOBALSTAR M037 1 25652U 99012D 26035.17611030 -.00000096 00000+0 42470-4 0 9992 2 25652 51.9982 197.5533 0001781 13.7777 157.2361 12.62460998240578 GLOBALSTAR M045 1 25676U 99019A 26035.16212590 -.00000056 00000+0 33546-3 0 9991 2 25676 51.9995 4.0843 0000338 23.1079 349.5943 12.27072305221877 GLOBALSTAR M019 1 25677U 99019B 26034.63774091 -.00000025 00000+0 68101-3 0 9993 2 25677 51.9862 152.2342 0002110 87.3139 286.3813 12.13879685213258 GLOBALSTAR M044 1 25678U 99019C 26035.19883590 -.00000114 00000+0 -41826-3 0 9996 2 25678 51.9963 131.0580 0006889 126.2778 243.6099 11.90263277198958 GLOBALSTAR M042 1 25679U 99019D 26035.17005191 -.00000109 00000+0 -16170-3 0 9996 2 25679 52.0012 116.0529 0003238 69.9974 306.0178 12.22095425213626 GLOBALSTAR M025 1 25770U 99031A 26035.19755084 -.00000069 00000+0 -42812-4 0 9995 2 25770 51.9853 341.8016 0001977 156.7799 340.8994 11.22561203507760 GLOBALSTAR M049 1 25771U 99031B 26035.15297413 -.00000026 00000+0 13713-2 0 9997 2 25771 51.9898 28.3216 0002871 53.6025 306.5036 11.12121698143233 GLOBALSTAR M047 1 25772U 99031C 26035.13300353 -.00000065 00000+0 13130-3 0 9991 2 25772 51.9867 3.1777 0016313 302.1958 57.7266 11.31931943497376 GLOBALSTAR M052 1 25773U 99031D 26035.21435267 -.00000092 00000+0 -87486-3 0 9990 2 25773 51.9858 133.5959 0003033 179.2707 191.5955 11.15063598504394 GLOBALSTAR M035 1 25851U 99037A 26035.09581207 -.00000009 00000+0 20725-2 0 9994 2 25851 51.9922 257.7877 0013897 2.8964 161.2872 11.04541868121886 GLOBALSTAR M032 1 25852U 99037B 26035.03636221 -.00000131 00000+0 -20773-2 0 9996 2 25852 51.9958 67.1186 0012826 196.7667 163.2710 11.19068234160744 GLOBALSTAR M051 1 25853U 99037C 26034.43825080 -.00000092 00000+0 -50274-3 0 9999 2 25853 51.9762 203.0261 0001160 95.4763 264.6180 11.42200074158812 GLOBALSTAR M030 1 25854U 99037D 26035.16899672 -.00000100 00000+0 -53146-3 0 9990 2 25854 51.9911 352.6147 0003744 91.6878 268.4367 11.55108452176852 GLOBALSTAR M048 1 25872U 99041A 26034.53382581 -.00000074 00000+0 -99396-4 0 9999 2 25872 51.9357 146.7721 0013061 220.9322 223.7530 11.33861932151225 GLOBALSTAR M026 1 25873U 99041B 26035.16082854 -.00000169 00000+0 -38525-2 0 9990 2 25873 52.0046 13.1491 0001807 303.1789 140.6345 11.06840780174178 GLOBALSTAR M043 1 25874U 99041C 26035.04789306 -.00000028 00000+0 11921-2 0 9998 2 25874 51.9382 262.4372 0013599 351.0612 158.4217 11.25697631148986 GLOBALSTAR M028 1 25875U 99041D 26033.97282836 -.00000090 00000+0 63601-4 0 9998 2 25875 51.9598 224.8949 0062768 211.9442 147.7606 12.50595578219051 GLOBALSTAR M024 1 25883U 99043A 26034.98578675 -.00000016 00000+0 17239-2 0 9992 2 25883 51.9973 217.6017 0002667 105.0299 66.0608 11.10168725140602 GLOBALSTAR M027 1 25884U 99043B 26035.11726942 -.00000063 00000+0 51345-5 0 9992 2 25884 52.0232 301.8621 0021780 7.2031 352.9071 11.04373570166860 GLOBALSTAR M054 1 25885U 99043C 26035.20921069 -.00000075 00000+0 -99720-4 0 9992 2 25885 52.0164 30.0116 0004763 215.4535 226.6722 11.39223510145491 GLOBALSTAR M053 1 25886U 99043D 26034.95441580 -.00000059 00000+0 29535-3 0 9996 2 25886 52.0020 350.5783 0003548 110.1522 292.9715 11.27669761145598 GLOBALSTAR M058 1 25907U 99049A 26034.93348639 -.00000093 00000+0 -11438-3 0 9997 2 25907 51.9909 210.3455 0002179 23.5616 336.5318 11.93208123569201 GLOBALSTAR M050 1 25908U 99049B 26035.19097435 -.00000061 00000+0 30836-3 0 9999 2 25908 51.9959 199.9995 0010033 130.2479 40.8196 12.07464439176213 GLOBALSTAR M033 1 25909U 99049C 26035.07134726 -.00000037 00000+0 53075-3 0 9995 2 25909 51.9918 56.1455 0014216 22.8973 337.2506 12.20302169564053 GLOBALSTAR M055 1 25910U 99049D 26035.20597330 -.00000081 00000+0 11207-3 0 9996 2 25910 52.0026 55.2135 0006796 251.6830 108.3283 12.29440216196820 GLOBALSTAR M057 1 25943U 99058A 26035.20148803 -.00000064 00000+0 26244-3 0 9997 2 25943 51.9993 49.7410 0002699 129.5413 230.5675 12.24832744195366 GLOBALSTAR M059 1 25944U 99058B 26035.17687558 -.00000021 00000+0 80460-3 0 9992 2 25944 52.0033 299.5616 0001118 65.1614 90.1753 11.99992445601893 GLOBALSTAR M056 1 25945U 99058C 26035.07825487 -.00000082 00000+0 58338-4 0 9994 2 25945 51.9975 295.8451 0000639 334.2601 164.1414 12.04784205190570 GLOBALSTAR M031 1 25946U 99058D 26035.14660095 -.00000018 00000+0 73592-3 0 9992 2 25946 51.9941 174.0870 0000346 306.7646 224.2121 12.16048525192762 GLOBALSTAR M039 1 25961U 99062A 26035.08244908 -.00000057 00000+0 26319-3 0 9996 2 25961 51.9848 282.4008 0002999 125.5728 234.5418 12.62340931209507 GLOBALSTAR M034 1 25962U 99062B 26034.66926088 -.00000070 00000+0 17195-3 0 9993 2 25962 51.9867 129.6629 0015053 119.3411 29.3821 11.79455521165705 GLOBALSTAR M029 1 25963U 99062C 26035.12271804 -.00000105 00000+0 -23851-3 0 9991 2 25963 51.9780 187.5413 0002378 185.2424 347.4789 11.99908022196966 GLOBALSTAR M061 1 25964U 99062D 26035.20032362 -.00000080 00000+0 29054-5 0 9999 2 25964 51.9818 315.4007 0006600 42.6511 107.9257 11.76777301148498 GLOBALSTAR M063 1 26081U 00008A 26035.00141922 -.00000092 00000+0 -13823-3 0 9992 2 26081 51.9920 221.0510 0005352 47.6158 121.4737 11.86180896185087 GLOBALSTAR M062 1 26082U 00008B 26034.46460719 -.00000198 00000+0 -71019-3 0 9998 2 26082 51.9848 135.6550 0006809 240.7388 199.8746 12.43480220525399 GLOBALSTAR M060 1 26083U 00008C 26035.19179140 -.00000006 00000+0 84098-3 0 9993 2 26083 52.0018 126.3506 0003063 222.8596 149.2438 12.17674631180633 GLOBALSTAR M064 1 26084U 00008D 26035.08938627 -.00000031 00000+0 75050-3 0 9991 2 26084 52.0057 316.9165 0001662 120.0399 240.0599 11.88540298194673 GLOBALSTAR M065 1 31571U 07020A 26034.98386959 -.00000083 00000+0 11834-3 0 9999 2 31571 51.9870 240.7448 0010838 99.9098 47.9199 12.62020008862671 GLOBALSTAR M069 1 31573U 07020C 26035.13172814 -.00000048 00000+0 40907-3 0 9996 2 31573 52.0021 268.7278 0000917 212.4813 316.5595 12.23467865862519 GLOBALSTAR M072 1 31574U 07020D 26035.17627955 -.00000059 00000+0 33884-3 0 9990 2 31574 51.9930 94.3575 0001371 78.6926 296.5333 11.91655392859120 GLOBALSTAR M071 1 31576U 07020F 26035.09084054 -.00000087 00000+0 39499-4 0 9990 2 31576 52.0078 300.9986 0000381 140.0914 358.0484 12.18264790523206 GLOBALSTAR M067 1 32263U 07048A 26035.18824865 -.00000067 00000+0 22545-3 0 9997 2 32263 51.9727 77.0684 0001599 121.6642 281.2534 12.40684408838288 GLOBALSTAR M070 1 32264U 07048B 26034.50470095 -.00000112 00000+0 -48298-4 0 9991 2 32264 51.9742 143.8077 0000608 109.1818 332.5458 12.62329767842884 GLOBALSTAR M066 1 32265U 07048C 26035.08172050 -.00000088 00000+0 58480-4 0 9991 2 32265 51.9596 80.0206 0005254 125.1618 253.9129 12.30384163843840 GLOBALSTAR M068 1 32266U 07048D 26035.15308822 -.00000080 00000+0 13488-3 0 9998 2 32266 51.9905 315.1388 0000747 328.0506 172.8851 12.62839326846867 GLOBALSTAR M079 1 37188U 10054A 26034.55736676 -.00000108 00000+0 -25867-4 0 9999 2 37188 52.0028 155.4580 0001054 98.4046 344.7685 12.62270164705678 GLOBALSTAR M074 1 37189U 10054B 26034.64788670 -.00000108 00000+0 -23268-4 0 9994 2 37189 52.0005 154.4701 0000978 116.3704 257.3977 12.62265657706296 GLOBALSTAR M076 1 37190U 10054C 26034.53076341 -.00000115 00000+0 -62643-4 0 9997 2 37190 52.0016 155.0186 0001159 111.5414 329.3484 12.62269990705994 GLOBALSTAR M077 1 37191U 10054D 26034.52124975 -.00000079 00000+0 -18304-4 0 9998 2 37191 51.9957 158.7655 0001519 109.8903 333.1104 11.68178319705521 GLOBALSTAR M075 1 37192U 10054E 26035.19696441 -.00000121 00000+0 -97430-4 0 9990 2 37192 51.9925 195.1178 0000937 94.4262 76.1241 12.62264045705143 GLOBALSTAR M073 1 37193U 10054F 26035.16407987 -.00000079 00000+0 13756-3 0 9992 2 37193 52.0060 109.2171 0000872 112.1631 267.3269 12.62269133707139 GLOBALSTAR M083 1 37739U 11033A 26035.01827911 -.00000097 00000+0 38862-4 0 9999 2 37739 51.9866 58.0706 0000584 100.1370 278.2533 12.62266904676132 GLOBALSTAR M088 1 37740U 11033B 26035.17731398 -.00000086 00000+0 99242-4 0 9998 2 37740 52.0239 323.6929 0000543 64.2304 76.8049 12.62260881671698 GLOBALSTAR M091 1 37741U 11033C 26035.11678330 -.00000074 00000+0 16635-3 0 9990 2 37741 52.0003 287.0424 0000872 60.0077 104.9532 12.62269415672476 GLOBALSTAR M085 1 37742U 11033D 26035.02299365 -.00000104 00000+0 -37272-5 0 9995 2 37742 52.0100 238.5015 0001096 70.4508 88.5928 12.62269001672977 GLOBALSTAR M081 1 37743U 11033E 26035.05103218 -.00000096 00000+0 42767-4 0 9993 2 37743 51.9937 241.0029 0001115 82.9250 84.2713 12.62262181673127 GLOBALSTAR M089 1 37744U 11033F 26034.93214941 -.00000120 00000+0 -90314-4 0 9996 2 37744 51.9909 195.5480 0001032 113.1024 53.4250 12.62264088673958 GLOBALSTAR M084 1 38040U 11080A 26034.99436381 -.00000087 00000+0 91657-4 0 9990 2 38040 52.0013 62.7690 0000630 140.4502 248.4977 12.62267614651946 GLOBALSTAR M080 1 38041U 11080B 26035.12670139 -.00000084 00000+0 10859-3 0 9999 2 38041 52.0064 64.0386 0000279 38.8546 1.3505 12.62265987652087 GLOBALSTAR M082 1 38042U 11080C 26034.97870840 -.00000104 00000+0 -15769-5 0 9994 2 38042 52.0095 19.9754 0000419 34.0739 343.1344 12.62267141652776 GLOBALSTAR M092 1 38043U 11080D 26034.58339890 -.00000084 00000+0 11189-3 0 9993 2 38043 52.0080 111.5686 0000674 117.2025 22.8530 12.62269848651176 GLOBALSTAR M090 1 38044U 11080E 26035.09786030 -.00000108 00000+0 -25156-4 0 9991 2 38044 52.0147 13.5267 0000509 70.0714 7.5591 12.62266371652902 GLOBALSTAR M086 1 38045U 11080F 26035.12216889 -.00000097 00000+0 36833-4 0 9996 2 38045 51.9920 13.5989 0001449 106.2065 334.9110 12.62282347652855 GLOBALSTAR M097 1 39072U 13005A 26035.05388699 -.00000081 00000+0 12899-3 0 9995 2 39072 52.0053 288.6069 0000959 71.5398 288.5573 12.62268544600096 GLOBALSTAR M093 1 39073U 13005B 26035.10684911 -.00000075 00000+0 15954-3 0 9996 2 39073 52.0105 281.7429 0001196 66.9978 293.1015 12.62272530600054 GLOBALSTAR M094 1 39074U 13005C 26034.86934399 -.00000118 00000+0 -79754-4 0 9995 2 39074 51.9934 196.7132 0001194 88.1095 271.9909 12.62266841601632 GLOBALSTAR M096 1 39075U 13005D 26035.04076056 -.00000094 00000+0 55977-4 0 9997 2 39075 52.0050 244.8881 0001132 73.0359 287.0632 12.62263011600577 GLOBALSTAR M078 1 39076U 13005E 26035.17282963 -.00000025 00000+0 44224-3 0 9994 2 39076 51.9898 328.6804 0001015 7.5657 352.5225 12.62276604599211 GLOBALSTAR M095 1 39077U 13005F 26035.12016329 -.00000081 00000+0 12779-3 0 9993 2 39077 52.0106 326.2568 0000937 41.5799 318.5139 12.62268138599066 GLOBALSTAR M087 1 52888U 22064A 26035.13338970 -.00000081 00000+0 12626-3 0 9994 2 52888 52.0014 107.5297 0000721 93.0692 267.0257 12.62266085174330